Regional Weather Roundup
Issued by NWS

Home | Current Version | Previous Version | Text Only | Print | Product List | Glossary On
Versions: 1 2 3 4 5 6 7 8 9 10 11 12 13 14 15 16 17 18 19 20 21 22 23 24 25 26 27 28 29 30 31 32 33 34 35 36 37 38 39 40 41 42 43 44 45 46 47 48 49 50
000
ASUS42 KTBW 200617
RWRFL
FLORIDA REGIONAL WEATHER ROUNDUP
NATIONAL WEATHER SERVICE TAMPA BAY RUSKIN FL
200 AM EDT WED SEP 20 2017

NOTE: "FAIR" INDICATES FEW OR NO CLOUDS BELOW 12,000 FEET WITH NO
SIGNIFICANT WEATHER AND/OR OBSTRUCTIONS TO VISIBILITY.

FLZ001>010-012>015-112-114-115-200700-
PANHANDLE FLORIDA

CITY           SKY/WX    TMP DP  RH WIND       PRES   REMARKS
PENSACOLA      CLEAR     78  74  87 CALM      29.99R
PENSACOLA NAS  PTCLDY    75  72  90 CALM      29.98R
MILTON NAS     CLEAR     72  71  97 CALM      30.00R
CRESTVIEW      CLEAR     73  71  93 CALM      30.00S FOG
DUKE FIELD     MOCLDY    75  74  97 CALM      29.99S
VALPARAISO     PTCLDY    78  74  87 NW3       29.98S
MARY ESTHER    PTCLDY    80  73  79 W3        29.97S
PANAMA CITY    FAIR      75  73  93 N3        29.97F
TYNDALL AFB    CLEAR     78  75  92 CALM      29.98F
APALACHICOLA   CLOUDY    78  76  93 CALM      29.99S

STATION/POSITION SKY/WX   TEMP    WIND        PRES    WAVE   SWELL
                          AIR SEA DIR/SP/G            HT/PER HT/PER
                          (F)     (DEG/KT/KT) (MB)    (FT/S) (FT/S)
30.1N   87.6W              82 83  220/  6/  8 1015.2R   1
29.2N   88.2W              83 86  210/  8/ 10 1015.7
28.8N   86.0W              81 84  260/  4/  4 1015.5F   0
PANAMA CITY BEAC                  270/  7/  7 1015.7F
TOWER C                    81                 1016.0F
28.5N   84.5W              81 82  340/  6/  8 1015.3F   0

$$
FLZ011-016>038-118-127-128-134-139-239-200700-
NORTH FLORIDA

CITY           SKY/WX    TMP DP  RH WIND       PRES   REMARKS
MARIANNA       PTCLDY    74  72  93 CALM      29.97F
TALLAHASSEE    CLOUDY    75  74  96 SW3       29.97F
PERRY          CLEAR     75  74  95 CALM      29.99S
LIVE OAK       PTCLDY    73  73 100 CALM      30.01S
CROSS CITY     CLEAR     72  71  96 CALM      30.04S
LAKE CITY      FAIR      72  70  94 S3        30.00F
GAINESVILLE    CLEAR    N/A N/A N/A CALM      30.03S
WILLISTON      CLEAR     72  70  94 CALM      30.01S
PALATKA        FAIR      68  68 100 CALM      30.00S
MAYPORT NAS    CLEAR     75  73  93 SW6       29.99S
JACKSONVILLE   CLEAR     73  71  93 CALM      29.99R
JAX NAS        CLEAR     79  71  76 SW6       30.00S
JAX CECIL      CLEAR     70  70 100 CALM      30.00S
FERNANDINA BEA FAIR      77  70  78 MISG      29.98S
ST AUGUSTINE   CLEAR     74  70  87 CALM      30.00F
PALM COAST     FAIR      72  57  58 CALM      29.99F

STATION/POSITION SKY/WX   TEMP    WIND        PRES    WAVE   SWELL
                          AIR SEA DIR/SP/G            HT/PER HT/PER
                          (F)     (DEG/KT/KT) (MB)    (FT/S) (FT/S)
SHELL POINT      NOT AVBL
KEATON BEACH               81     270/  8/  9 1014.9F
CEDAR KEY                  82     140/  6/  7 1016.1S
FERNANDINA                        180/  2/  5 1016.2S
30.7N   81.3W                 81                N/A     3/11   2/11
MAYPORT                           210/  3/  5 1015.9S
31.4N   80.9W              80 80  170/ 12/ 14 1015.1R   3/12   3/12
ST AUGUSTINE               81 82  160/  9/ 10 1015.7F

$$
FLZ040-043>046-052-053-057-058-063-144-200700-
INTERIOR CENTRAL FLORIDA

CITY           SKY/WX    TMP DP  RH WIND       PRES   REMARKS
OCALA          CLEAR     71  68  90 CALM      30.01S
THE VILLAGES     N/A     73  72  94 CALM      29.90S
LEESBURG       CLEAR     77  74  90 CALM      30.01S
SANFORD        CLEAR     76  72  87 CALM      29.99S
ORLANDO INTL   MOCLDY    76  73  91 E3        29.99S
KISSIMMEE      CLEAR     77  72  84 CALM      30.00S
WINTER HAVEN   CLEAR     75  70  84 E3        30.00S
LAKELAND       CLEAR     73  70  88 CALM      29.99F
SEBRING        FAIR      77  71  80 E6        29.97F
OKEECHOBEE     CLEAR     72  70  94 CALM      29.97S

$$
FLZ041-047-054-059-064-141-147-200700-
EAST CENTRAL FLORIDA

CITY           SKY/WX    TMP DP  RH WIND       PRES   REMARKS
DAYTONA BEACH  PTCLDY    75  73  93 CALM      29.99S
DELAND         PTCLDY    72  70  94 CALM      29.99S
JFK SPACE CTR  CLEAR     76  74  91 CALM      29.96F
CAPE CANAVERAL CLOUDY    80  73  77 E5        29.96F
PATRICK AFB    MOCLDY    81  75  83 NE5       29.97S
MELBOURNE      CLOUDY    78  75  90 W5        29.97F
VERO BEACH     MOCLDY    78  73  84 CALM      29.96F
FT PIERCE      PTCLDY    77  74  90 CALM      29.96F
STUART         CLEAR     81  73  78 E7        29.97F

STATION/POSITION SKY/WX   TEMP    WIND        PRES    WAVE   SWELL
                          AIR SEA DIR/SP/G            HT/PER HT/PER
                          (F)     (DEG/KT/KT) (MB)    (FT/S) (FT/S)
28.5N   80.2W              83 85   80/ 10/ 12 1015.8F   5/11   5/11
28.9N   78.5W                 84   CALM  /  4 1015.1F   6/16   5/16
TRIDENT PIER                       70/  5/  9 1016.5F
28.4N   80.5W                 83                N/A     2/11   2/11
27.5N   80.2W                 82                N/A     5/11   3/11

$$
FLZ050-056-061-142-242-148-248-149-249-151-251-155-255-
160-260-200700-
WEST CENTRAL FLORIDA

CITY           SKY/WX    TMP DP  RH WIND       PRES   REMARKS
CRYSTAL RIVER  FAIR     N/A N/A N/A CALM      30.00S
INVERNESS      FAIR      70  70 100 CALM      30.01S
BROOKSVILLE    CLEAR     73  70  90 CALM      30.00S
CLEARWATER AIR FAIR      79  70  73 E3        29.98S
ST PETE CLEARW CLEAR     80  72  76 E8        29.98F
TAMPA INTL     CLEAR     80  70  71 CALM      29.99S
TAMPA EXEC     CLEAR     72  70  94 CALM      29.99F
PLANT CITY     CLEAR     75  72  88 CALM      30.01S
MACDILL AFB    CLEAR     75  75 100 SE5       29.98F
PETER O KNIGHT MOCLDY    79  73  83 CALM      29.99S
ST PETERSBURG  CLEAR     80  73  79 SE10      29.97S
SARASOTA       CLEAR     76  72  87 E5        29.96S
VENICE         MOCLDY    77  73  88 E8        29.97S

STATION/POSITION SKY/WX   TEMP    WIND        PRES    WAVE   SWELL
                          AIR SEA DIR/SP/G            HT/PER HT/PER
                          (F)     (DEG/KT/KT) (MB)    (FT/S) (FT/S)
27.3N   84.2W                 83                N/A     2/ 4
CLEARWATER BEACH                   80/  5/  6 1015.6S
MIDDLE TAMPA BAY                  120/  9/ 10 1015.2F
VENICE                     78 84   70/  7/  9 1014.9F

$$
FLZ066-069-070-075>078-162-262-165-265-200700-
SOUTHWEST FLORIDA AND KEYS

CITY           SKY/WX    TMP DP  RH WIND       PRES   REMARKS
PUNTA GORDA    CLEAR     77  74  90 E8        29.97F
FT MYERS       CLEAR     78  76  93 E7        29.95F
SOUTHWEST INTL PTCLDY    78  74  87 E8        29.95F
NAPLES         CLEAR     78  75  90 E8        29.94S
IMMOKALEE      CLOUDY    79  75  89 E7        29.96S
MARATHON       PTCLDY    81  73  76 CALM      29.94F
KEY WEST NAS   CLEAR     83  78  85 CALM      29.95F
KEY WEST INTL  PTCLDY    82  76  81 CALM      29.95F

STATION/POSITION SKY/WX   TEMP    WIND        PRES    WAVE   SWELL
                          AIR SEA DIR/SP/G            HT/PER HT/PER
                          (F)     (DEG/KT/KT) (MB)    (FT/S) (FT/S)
NAPLES           NOT AVBL
DRY TORTUGAS               82     120/  1/  2 1014.4F
SAND KEY                   82                 1014.8F
MOLASSES REEF              83     350/  1       N/A

$$
FLZ067-068-071>074-168-172>174-200700-
SOUTHEAST FLORIDA

CITY           SKY/WX    TMP DP  RH WIND       PRES   REMARKS
W PALM BEACH   MOCLDY    78  73  84 NE6       29.96F
FT LAUDER-EXEC CLEAR     78  76  93 NE3       29.95F
FT LAUDERDALE  MOCLDY    80  74  81 N3        29.94F
POMPANO BEACH  PTCLDY    78  76  93 N3        29.95F FOG
PEMBROKE PINES CLEAR     80  74  81 N3        29.96F
OPA LOCKA      CLEAR     82  79  90 CALM      29.95F
MIAMI          MOCLDY    83  76  79 CALM      29.95F
WEST KENDALL   CLEAR     80  73  79 S3        29.95F
HOMESTEAD      CLEAR     77  77 100 CALM      29.94F

STATION/POSITION SKY/WX   TEMP    WIND        PRES    WAVE   SWELL
                          AIR SEA DIR/SP/G            HT/PER HT/PER
                          (F)     (DEG/KT/KT) (MB)    (FT/S) (FT/S)
PORT EVERGLADES            83     190/  2/  2 1014.2
VIRGINIA KEY                      240/  3/  4 1013.7F
LAKE WORTH                         10/  8/  9   N/A
FOWEY ROCKS                83 85  180/  5/  6 1014.7F
SETTLEMENT POINT           83      70/  6/  8 1014.4F

$$




USA.gov is the U.S. government's official web portal to all federal, state and local government web resources and services.